COSMOS 2491 DEB, 45127

Orbit data source: Space-Track

COSMOS 2491 DEB, 45127 is space debris in LEO originally from a launch on Wed, 25 Dec 2013 UTC launched from the Plesetsk Missile And Space Complex (PKMTR). Debris objects in space refer to the collection of defunct objects orbiting the Earth. Examples of debris include non-operational satellites, rocket bodies, and fragments generated from explosions, collisions, or faulty payload assembly.

Loading next visibility...
Identifier
45127, 2013-076Z
Orbit
LEO
Country
Flag of CISCIS
Related business
Manufacturer
TsNIIKhM
Mission
Spacecraft
Bus & Motor
Unknown
Mass
Unknown
Launch date (UTC)
2013-12-25 (12 years ago)
Launch vehicle
Unknown
Launch site
Plesetsk Missile And Space Complex (PKMTR)
Object type
Payload
Rocket body
Debris
Shape & HBR
Unknown shape, 0.1 m
Radar Cross Section
Small (<0.1 m²)

Expand to show TLE details & history
Last TLE update: 2 weeks ago

TLE from 2 weeks ago
0 COSMOS 2491 DEB
1 45127U 13076Z   25274.28234987  .00002651  00000-0  14587-1 0  9999
2 45127  82.4488 291.0812 0110443  76.6104 284.7270 12.61436958260592
Epoch: 2025-10-01T06:46Z
TLE epoch observation values (Epoch: 2025-10-01T06:46:35.028Z)
Latitude
-0.00004°
Longitude
179.17565°
Altitude
1,398.748 km
Speed
7.17 km/s
True Right ascension
19h 24m 19s
True Declination
0° 00' 00"
Sunlit
Object was in daylight at epoch
Visualization orbit readout
Latitude
Unknown
Longitude
Unknown
Altitude
Unknown
Speed
Unknown
Apparent Right ascension
Unknown
Apparent Declination
Unknown
Sunlit
N/A
Visualization observer readout
Local Sidereal Time
19:04:51
Azimuth
Unknown
Elevation
Unknown
Doppler factor
Unknown
Orbital elements
Apogee altitude
1,500.408 km
Perigee altitude
1,328.283 km
Semi-major axis
7,792.482 km
Eccentricity
0.01104
Inclination
82.4488°
RAAN
291.0812°
Arg. of periapsis
76.6104°
True anomaly
283.49878°
Mean anomaly
284.727°
Eccentric anomaly
284.11331°
Mean motion
3.15522 °/min
Orbital period
114.1 mins
BSTAR
0.014587
Loading maneuver chart data...
Computing Atmospheric mass density...
Loading historical data...
Loading historical data...
Loading historical data...
Loading historical data...
Loading historical data...
Loading historical data...
Loading historical data...

Documentation

Showing up to 5 results
|